CW6617 Weather Reports


time (UTC)temp
F
wind
direction
speed
knots
gust
knots
rain 1hr
in
rain 24hr
in
rain mn
in
humidity
%
barometer
mb
20210518201706 53 189 0.9 5.2 0.00 0.09 0.09 88 1014.5
20210518201206 53 184 2.6 5.2 0.00 0.09 0.09 88 1014.4
20210518200706 53 186 1.7 5.2 0.00 0.09 0.09 87 1014.4
20210518200206 53 201 2.6 5.2 0.00 0.09 0.09 87 1014.3
20210518194706 53 191 1.7 7.0 0.00 0.09 0.09 86 1014.4
20210518194206 53 201 2.6 5.2 0.00 0.09 0.09 85 1014.3
20210518193706 53 190 2.6 6.1 0.00 0.09 0.09 85 1014.2
20210518193206 53 196 2.6 7.0 0.00 0.09 0.09 85 1014.2
20210518191706 53 189 4.3 6.1 0.00 0.09 0.09 85 1014.2
20210518191206 54 175 4.3 7.8 0.00 0.09 0.09 85 1014.0
20210518190705 54 200 4.3 7.0 0.00 0.09 0.09 85 1014.0
20210518190206 54 194 6.1 8.7 0.00 0.09 0.09 84 1014.1
20210518184706 55 194 4.3 8.7 0.00 0.10 0.09 82 1014.1
20210518184205 55 191 5.2 8.7 0.00 0.11 0.09 82 1014.2
20210518183705 55 199 4.3 7.8 0.00 0.12 0.09 81 1014.2
20210518183206 55 195 4.3 13.0 0.00 0.13 0.09 80 1014.1
20210518181705 56 197 5.2 11.3 0.00 0.15 0.09 77 1013.8
20210518181205 57 203 5.2 11.3 0.00 0.17 0.09 76 1013.8
20210518180706 57 187 4.3 12.2 0.00 0.17 0.09 75 1013.8
20210518180206 57 212 6.1 11.3 0.00 0.17 0.09 75 1013.7
20210518174705 58 212 1.7 5.2 0.00 0.17 0.09 72 1013.5
20210518174205 58 221 2.6 5.2 0.00 0.17 0.09 72 1013.6
20210518173706 58 249 3.5 10.4 0.00 0.17 0.09 73 1013.6
20210518173206 58 186 3.5 7.0 0.00 0.17 0.09 73 1013.6
20210518171706 59 253 2.6 6.1 0.00 0.18 0.09 70 1013.6
20210518171206 60 265 2.6 6.1 0.00 0.18 0.09 71 1013.6
20210518170705 59 215 5.2 11.3 0.00 0.19 0.09 71 1013.6
20210518170206 59 251 4.3 10.4 0.00 0.19 0.09 73 1013.6
20210518164706 57 200 6.1 11.3 0.00 0.19 0.09 73 1013.6
20210518164206 57 188 5.2 10.4 0.00 0.19 0.09 73 1013.5
20210518163705 58 224 5.2 10.4 0.00 0.19 0.09 71 1013.5
20210518163205 59 217 4.3 10.4 0.00 0.19 0.09 72 1013.5
20210518161706 59 197 4.3 10.4 0.00 0.19 0.09 72 1013.6
20210518161205 60 206 2.6 6.1 0.00 0.19 0.09 72 1013.6
20210518160706 60 207 4.3 8.7 0.00 0.19 0.09 73 1013.6
20210518160205 59 200 4.3 10.4 0.00 0.19 0.09 78 1013.6
20210518154706 57 189 3.5 7.8 0.00 0.19 0.09 78 1013.5
20210518154206 57 232 4.3 8.7 0.00 0.19 0.09 79 1013.5
20210518153706 57 248 2.6 7.0 0.00 0.19 0.09 79 1013.5
20210518153206 57 250 4.3 10.4 0.00 0.19 0.09 77 1013.5
20210518151706 58 211 4.3 11.3 0.01 0.19 0.09 83 1013.6
20210518151213 57 206 2.6 10.4 0.02 0.19 0.09 81 1013.7
20210518150706 58 232 5.2 10.4 0.02 0.19 0.09 82 1013.8
20210518150205 57 177 5.2 10.4 0.02 0.19 0.09 87 1013.7
20210518144706 55 273 0.9 6.1 0.06 0.19 0.09 90 1013.8
20210518144206 54 211 1.7 5.2 0.07 0.19 0.09 90 1013.9
20210518143706 54 195 2.6 4.3 0.07 0.19 0.09 93 1013.9
20210518143206 53 257 2.6 10.4 0.07 0.19 0.09 91 1014.0
20210518141706 52 252 3.5 10.4 0.07 0.20 0.08 87 1014.0
20210518141205 53 283 2.6 8.7 0.06 0.21 0.07 86 1014.1
20210518140705 53 255 6.1 12.2 0.06 0.24 0.06 84 1014.0
20210518140206 55 295 9.6 14.8 0.06 0.25 0.06 84 1014.0
20210518134705 58 305 5.2 7.8 0.02 0.22 0.03 79 1013.6
20210518134205 58 276 2.6 6.1 0.01 0.20 0.02 75 1013.3
20210518133705 58 203 3.5 7.8 0.01 0.20 0.02 73 1013.1
20210518133205 58 194 5.2 7.0 0.01 0.20 0.02 73 1013.2
20210518131705 59 197 2.6 6.1 0.00 0.20 0.01 72 1013.2
20210518131205 59 297 2.6 7.0 0.00 0.20 0.01 71 1013.1
20210518130707 60 194 2.6 6.1 0.00 0.20 0.01 75 1013.1
20210518130206 59 258 2.6 5.2 0.00 0.20 0.01 75 1013.1
20210518124705 56 314 0.9 4.3 0.00 0.20 0.01 85 1013.1
20210518124205 55 315 3.5 5.2 0.00 0.20 0.01 85 1013.2
20210518123706 55 264 2.6 4.3 0.00 0.20 0.01 86 1013.3
20210518123206 54 221 1.7 6.1 0.00 0.22 0.01 83 1013.4
20210518121706 54 314 2.6 7.0 0.00 0.30 0.01 84 1013.6
20210518121206 55 318 7.8 11.3 0.00 0.30 0.01 80 1013.7
20210518120705 55 309 7.8 11.3 0.00 0.30 0.01 80 1013.7
20210518120206 56 310 7.0 13.0 0.00 0.30 0.01 76 1013.7
20210518114705 59 174 5.2 7.8 0.00 0.30 0.01 73 1013.3
20210518114206 57 248 5.2 11.3 0.00 0.30 0.01 75 1013.3
20210518113706 57 234 2.6 6.1 0.00 0.30 0.01 76 1013.2
20210518113205 58 291 4.3 7.8 0.00 0.30 0.01 77 1013.1
20210518111705 58 296 4.3 7.0 0.00 0.30 0.01 77 1013.1
20210518111205 58 295 2.6 7.0 0.00 0.30 0.01 77 1013.1
20210518110706 58 326 3.5 8.7 0.00 0.30 0.01 76 1013.1
20210518110205 58 305 4.3 7.8 0.00 0.30 0.01 75 1013.1
20210518104706 59 249 3.5 6.1 0.00 0.30 0.01 75 1013.2
20210518104206 58 310 4.3 7.8 0.00 0.30 0.01 78 1013.2
20210518103705 57 261 2.6 7.0 0.00 0.30 0.01 77 1013.3
20210518103205 56 188 1.7 7.8 0.00 0.30 0.01 78 1013.3
20210518101705 56 199 2.6 8.7 0.00 0.30 0.01 79 1013.3
20210518101205 56 238 2.6 7.0 0.00 0.30 0.01 80 1013.3
20210518100706 56 185 4.3 7.0 0.00 0.30 0.01 79 1013.3
20210518100206 56 215 3.5 6.1 0.00 0.30 0.01 78 1013.3
20210518094705 55 253 3.5 7.8 0.00 0.30 0.01 79 1013.5
20210518094205 55 307 2.6 6.1 0.00 0.30 0.01 82 1013.4
20210518093705 55 180 2.6 6.1 0.00 0.30 0.01 83 1013.5
20210518093205 55 247 2.6 10.4 0.00 0.30 0.01 82 1013.5
20210518091706 56 288 2.6 7.0 0.00 0.30 0.01 86 1013.3
20210518091206 55 202 3.5 7.0 0.00 0.30 0.01 86 1013.4
20210518090705 55 205 1.7 6.1 0.00 0.30 0.01 90 1013.3
20210518090205 53 239 1.7 5.2 0.00 0.30 0.01 92 1013.4
20210518084705 51 254 2.6 6.1 0.00 0.30 0.01 93 1013.3
20210518084205 51 220 0.9 2.6 0.00 0.30 0.01 95 1013.4
20210518083706 51 251 0.9 1.7 0.00 0.30 0.01 95 1013.4
20210518083205 51 283 1.7 7.8 0.00 0.30 0.01 96 1013.3
20210518081706 51 297 2.6 10.4 0.00 0.30 0.01 97 1013.4
20210518081205 51 208 0.9 4.3 0.00 0.30 0.01 97 1013.3
20210518080706 51 171 1.7 5.2 0.00 0.30 0.01 97 1013.3
20210518080206 50 247 2.6 7.0 0.00 0.30 0.01 97 1013.2
20210518074706 50 229 1.7 4.3 0.00 0.30 0.01 97 1013.0
20210518074206 50 186 1.7 5.2 0.00 0.30 0.01 97 1013.0
20210518073706 49 209 1.7 7.0 0.00 0.30 0.01 98 1013.0
20210518073205 49 174 2.6 7.0 0.00 0.30 0.01 97 1012.9
20210518071705 48 200 0.0 2.6 0.00 0.30 0.01 97 1012.9
20210518071205 48 239 0.0 2.6 0.00 0.30 0.01 97 1013.0
20210518070705 48 239 0.0 0.0 0.00 0.30 0.01 97 1013.0
20210518070205 47 239 0.0 0.0 0.00 0.30 0.01 97 1013.0
20210518064705 47 239 0.0 0.0 0.00 0.30 0.01 97 1013.1
20210518064205 47 255 0.0 0.0 0.00 0.30 0.01 97 1013.1
20210518063705 46 257 0.0 0.0 0.00 0.30 0.01 97 1013.1
20210518063206 46 258 0.0 2.6 0.00 0.30 0.01 97 1013.1
20210518061706 46 229 0.0 0.9 0.00 0.30 0.01 97 1013.0
20210518061206 46 260 0.0 2.6 0.00 0.30 0.01 97 1013.1
20210518060706 45 240 0.0 2.6 0.00 0.30 0.01 97 1013.0
20210518060205 45 232 0.0 0.9 0.00 0.30 0.01 97 1013.0
20210518054706 45 188 0.0 0.0 0.00 0.30 0.01 97 1012.9
20210518054205 45 188 0.0 0.0 0.00 0.30 0.01 97 1012.8
20210518053705 44 188 0.0 0.0 0.00 0.30 0.01 97 1012.8
20210518053205 44 186 0.0 1.7 0.00 0.30 0.01 97 1012.7
20210518051705 43 206 0.0 0.0 0.00 0.30 0.01 97 1012.8
20210518051205 43 205 0.0 0.0 0.00 0.30 0.01 97 1012.7
20210518050705 43 206 0.0 0.0 0.00 0.30 0.01 96 1012.6
20210518050206 42 205 0.0 0.0 0.00 0.30 0.01 96 1012.6
20210518044705 42 206 0.0 0.0 0.00 0.30 0.01 96 1012.5
20210518044206 42 206 0.0 0.0 0.00 0.30 0.01 96 1012.4
20210518043706 41 206 0.0 0.0 0.00 0.30 0.01 96 1012.4
20210518043205 41 206 0.0 0.0 0.00 0.30 0.01 96 1012.5
20210518041706 40 206 0.0 0.0 0.00 0.30 0.01 95 1012.3
20210518041206 40 206 0.0 0.0 0.00 0.30 0.01 95 1012.3
20210518040706 40 206 0.0 0.0 0.00 0.30 0.01 95 1012.3
20210518040205 41 206 0.0 0.0 0.00 0.30 0.01 95 1012.1
20210518034706 41 206 0.0 0.0 0.00 0.30 0.01 95 1012.1
20210518034205 41 206 0.0 0.0 0.00 0.30 0.01 95 1012.1
20210518033706 41 206 0.0 0.0 0.01 0.30 0.01 95 1012.0
20210518033205 41 206 0.0 0.0 0.01 0.30 0.01 95 1011.9
20210518031706 42 206 0.0 0.0 0.01 0.30 0.01 95 1011.9
20210518031206 42 206 0.0 0.0 0.01 0.30 0.01 95 1012.0
20210518030705 42 206 0.0 0.0 0.01 0.30 0.01 95 1011.9
20210518030205 42 205 0.0 0.0 0.01 0.30 0.01 95 1011.9
20210518024705 43 206 0.0 0.0 0.01 0.30 0.01 95 1012.0
20210518024206 43 206 0.0 0.0 0.01 0.30 0.01 95 1012.0
20210518023705 43 206 0.0 0.0 0.00 0.29 0.00 95 1012.0
20210518023206 43 206 0.0 0.0 0.00 0.29 0.00 95 1011.9
20210518021706 43 206 0.0 0.0 0.00 0.29 0.00 95 1011.8
20210518021205 43 206 0.0 0.0 0.00 0.29 0.00 95 1011.9
20210518020705 43 206 0.0 0.0 0.00 0.29 0.00 95 1011.9
20210518020206 43 206 0.0 0.0 0.00 0.29 0.00 95 1011.9
20210518014706 44 206 0.0 0.0 0.00 0.29 0.00 95 1011.8
20210518014206 44 206 0.0 0.0 0.00 0.29 0.00 95 1011.8
20210518013705 44 206 0.0 0.0 0.00 0.29 0.00 95 1011.7
20210518013205 44 206 0.0 0.0 0.00 0.29 0.00 95 1011.7
20210518011706 44 206 0.0 0.0 0.00 0.29 0.00 95 1011.7
20210518011206 44 204 0.0 0.0 0.00 0.29 0.00 95 1011.6
20210518010705 44 197 0.0 0.0 0.00 0.29 0.00 95 1011.6
20210518010205 44 197 0.0 0.0 0.00 0.29 0.00 95 1011.5
20210518004706 44 167 0.0 0.0 0.00 0.29 0.00 95 1011.4
20210518004206 44 167 0.0 0.0 0.00 0.29 0.00 94 1011.3
20210518003705 44 167 0.0 0.0 0.00 0.29 0.00 94 1011.3
20210518003206 44 167 0.0 0.0 0.00 0.29 0.00 94 1011.2
20210518001706 45 167 0.0 0.0 0.00 0.30 0.00 95 1011.0
20210518001205 45 167 0.0 0.0 0.00 0.30 0.00 95 1011.0
20210518000705 45 167 0.0 0.0 0.00 0.31 0.00 94 1011.0
20210518000206 45 167 0.0 0.0 0.00 0.31 0.00 95 1011.0
20210517234706 45 167 0.0 0.0 0.00 0.32 0.00 95 1010.9
20210517234205 46 167 0.0 0.0 0.00 0.32 0.00 95 1010.9
20210517233706 46 167 0.0 0.0 0.00 0.32 0.00 95 1010.8
20210517233205 46 167 0.0 0.0 0.00 0.32 0.00 94 1010.9
20210517231705 46 167 0.0 0.0 0.00 0.32 0.00 94 1010.9
20210517231205 46 167 0.0 0.0 0.00 0.32 0.00 94 1010.8
20210517230706 46 167 0.0 0.0 0.00 0.32 0.00 94 1010.7
20210517230205 47 167 0.0 0.0 0.00 0.33 0.00 94 1010.8
20210517224705 47 167 0.0 0.0 0.00 0.35 0.33 95 1010.8
20210517224205 47 167 0.0 0.0 0.00 0.35 0.33 95 1010.8
20210517223705 47 167 0.0 0.0 0.00 0.35 0.33 94 1010.7
20210517223205 47 167 0.0 0.0 0.00 0.35 0.33 94 1010.7
20210517221706 47 167 0.0 0.0 0.00 0.35 0.33 94 1010.6
20210517221206 47 167 0.0 0.0 0.00 0.35 0.33 94 1010.6
20210517220706 47 167 0.0 0.0 0.00 0.35 0.33 94 1010.6
20210517220205 47 167 0.0 0.0 0.00 0.35 0.33 94 1010.5
20210517214705 48 167 0.0 0.0 0.00 0.35 0.33 94 1010.6
20210517214206 48 167 0.0 0.0 0.00 0.35 0.33 94 1010.5
20210517213705 48 167 0.0 0.0 0.00 0.35 0.33 94 1010.5
20210517213206 48 167 0.0 0.0 0.00 0.35 0.33 94 1010.4
20210517211705 49 167 0.0 0.0 0.00 0.35 0.33 94 1010.5
20210517211206 49 167 0.0 0.0 0.00 0.35 0.33 94 1010.4
20210517210705 49 167 0.0 0.0 0.00 0.35 0.33 94 1010.3
20210517210206 49 167 0.0 4.3 0.00 0.35 0.33 94 1010.2
20210517204706 49 167 0.0 0.0 0.00 0.36 0.33 94 1010.2
20210517204206 49 167 0.0 0.0 0.00 0.36 0.33 94 1010.1
20210517203706 49 167 0.9 4.3 0.00 0.36 0.33 94 1010.1
20210517203205 49 167 0.9 5.2 0.00 0.36 0.33 94 1010.0